Погода в Кызыл-Юрте

Россия / Карачаево-Черкесская Республика     44°10′52″N   41°52′15″E
темп.,
°C
ветер,
м/с
пор.,
м/с
влажн.,
%
обл.,
%
осадки,
мм/ч
давл.,
гПа
погр.,
м
18 января, вт
вт1800:00−8ю3376100 0.0 101537
03:00−5ююз3477100 0.0 101362
06:00−3ю3476100 0.2 101160
09:00−2ю3774100 0.3 1009112
12:00+1ююв2381100 0.0 1007107
15:00+1в1192100 0.0 100711
18:00−2юз2279100 0.0 100920
21:00−2сз61095100 0.1 1014718
19 января, ср
ср1900:00−4ююв1197100 0.9 101629
03:00−4ююв2293100 1.0 101632
06:00−4сз3697100 1.0 1018428
09:00−5ссз0295100 1.9 1020275
12:00−4с1188100 0.7 1020420
15:00−4ссв2285100 0.8 1020413
18:00−7в1197100 0.0 102111
21:00−6всв1397100 0.1 1021130
20 января, чт
чт2000:00
03:00−7вюв2596100 0.2 1021164
06:00−9ю1197100 0.0 102110
09:00
12:00−5св1185100 0.0 1021332
15:00−4св018297 0.0 1021321
18:00−9ююз219420 0.0 102410
21:00−10ю22937 0.0 102513
21 января, пт
пт2100:00−9ю33885 0.0 102527
03:00−10ю34780 0.0 102544
06:00−10ю347641 0.0 102543
09:00−7ю35747 0.0 102477
12:00−2юв23605 0.0 1021179
15:00−1в117453 0.0 102041
18:00−7ююв228773 0.0 102112
21:00−6ююв338020 0.0 102025
22 января, сб
сб2200:00−5ю33765 0.0 101937
03:00−4ю3477100 0.0 101739
06:00−2ю3478100 0.0 101543
09:00−1ююз3381100 0.0 101648
12:00+2юз01100100 0.0 101515
15:00+1юв11100100 0.0 101515
18:00−2ю1195100 0.0 101610
21:00−3юз229338 0.0 101714